Regional Weather Roundup
Issued by NWS

Home | Current Version | Previous Version | Text Only | Print | Product List | Glossary On
Versions: 1 2 3 4 5 6 7 8 9 10 11 12 13 14 15 16 17 18 19 20 21 22 23 24 25 26 27 28 29 30 31 32 33 34 35 36 37 38 39 40 41 42 43 44 45 46 47 48 49 50
000
ASUS44 KEWX 250811
RWRTX
SOUTH TEXAS REGIONAL WEATHER ROUNDUP
NATIONAL WEATHER SERVICE AUSTIN/SAN ANTONIO TX
300 AM CDT TUE APR 25 2017

NOTE: "FAIR" INDICATED FEW OR NO CLOUDS BELOW 12,000 FEET WITH NO
SIGNIFICANT WEATHER AND/OR OBSTRUCTIONS TO VISIBILITY.

* - THESE STATIONS ARE NOT NWS OR FAA STATIONS...AND ARE NOT SUBJECT
    TO NWS AND FAA QUALITY CONTROL.

TXZ171-172-183>190-250900-
TEXAS HILL COUNTRY AND EDWARDS PLATEAU

CITY           SKY/WX    TMP DP  RH WIND       PRES   REMARKS
JUNCTION       CLEAR     69  54  58 S9        29.63F
*LLANO         CLEAR     63  55  77 S6        29.66S
BURNET         CLEAR     64  55  72 S10G21    29.66S
*HORSESHOE BAY CLEAR     65  57  73 S18G25    29.62F
*KERRVILLE     CLEAR     61  57  87 S14       29.70S
*FREDERICKSBRG CLEAR     61  54  76 SW8       29.68S
*ROCKSPRINGS   CLEAR     64  55  72 S13       29.69F
*BOERNE STAGE  CLEAR     61  55  82 S8        29.70F
*CASTROVILLE   CLEAR     63  56  80 SE3       29.69F
HONDO          CLEAR     63  57  81 E5        29.68F
*UVALDE        CLEAR     59  56  90 CALM      29.68F
DEL RIO        CLEAR     66  56  70 SE10      29.60F
LAUGHLIN AFB   CLEAR     66  57  73 SE9       29.62F
CARRIZO SPRGS  CLEAR     64  55  72 SE5       29.62F
*EAGLE PASS    NOT AVBL
$$

TXZ173-191>194-202-209-217>225-228-250900-
CENTRAL AND SOUTH CENTRAL TEXAS

CITY           SKY/WX    TMP DP  RH WIND       PRES   REMARKS
GEORGETOWN     CLEAR     64  54  68 S17       29.65F
AUSTIN/BERGSTM CLEAR     61  56  83 S7        29.67F
AUSTIN/MABRY   CLEAR     63  56  78 S6        29.67F
*AUSTIN/EXEC   CLEAR     63  57  82 S9        29.67F
*LAGO VISTA    CLEAR     64  57  77 S16G25    29.67F
SAN MARCOS     CLEAR     61  55  82 SW6       29.69F
NEW BRAUNFELS  CLEAR     63  58  83 S10       29.67F
RANDOLPH AFB   CLEAR     64  62  93 S10       29.68F
PT SAN ANTONIO CLEAR     62  58  87 SE7       29.65F
SAN ANTONIO    PTCLDY    65  58  78 S10       29.69F
STINSON FIELD  CLEAR     65  59  81 S8        29.66F
*LA GRANGE     CLEAR     63  58  85 S7        29.67F
*GIDDINGS      CLEAR     62  55  79 S7        29.69F
*GONZALES      CLEAR     63  60  91 S6        29.68F
$$

TXZ163>164-176>182-195>201-210>213-226-227-235-250900-
SOUTHEAST TEXAS

CITY           SKY/WX    TMP DP  RH WIND       PRES   REMARKS
COLLEGE STN    CLEAR     63  56  78 S10       29.69F
*BRYAN         CLEAR     62  56  79 S12       29.70F
*CALDWELL      NOT AVBL
*CROCKETT      CLEAR     59  55  88 S8        29.73F
*BRENHAM       CLEAR     63  57  83 S5        29.70F
HUNTSVILLE     CLEAR     64  56  75 S9        29.71F
CONROE         CLEAR     57  54  89 SE3       29.72F
HOUSTON BUSH   PTCLDY    66  57  72 S7        29.73F
HOUSTON HOBBY  CLEAR     64  57  78 S8        29.72F
*HOUSTON SW AP CLEAR     57  55  94 CALM      29.74F
PEARLAND       CLEAR     65  57  75 S3        29.74F
HOUSTON HOOKS  CLEAR     65  58  78 S7        29.72F
ELLINGTON FLD  PTCLDY    63  55  77 SE3       29.76F
SUGAR LAND     CLEAR     64  60  87 SE8       29.72F
*HOUSTON EXEC  CLEAR     63  59  88 S8        29.73F FOG
*CLEVELAND MUN CLEAR     56  55  94 CALM      29.74F
*WHARTON       CLEAR     60  57  91 SE6       29.72F
*COLUMBUS      FAIR      63  59  86 S7        29.71F
*EAGLE LAKE    SUNNY     62  61  95 S7        29.70F
$$

TXZ214>216-236>238-250900-
THE UPPER TEXAS COAST

CITY           SKY/WX    TMP DP  RH WIND       PRES   REMARKS
*ORANGE        PTCLDY    66  58  75 SW6       29.78S
PORT ARTHUR    PTCLDY    61  55  81 S5        29.75F
GALVESTON      PTCLDY    72  62  71 S14       29.75F
ANGLETON       CLEAR     61  58  90 S6        29.73F
*BAY CITY      CLEAR     64  61  91 S5        29.73F
PALACIOS       PTCLDY    72  62  71 S14G21    29.72F
$$

TXZ229>234-239>247-250900-
TEXAS COASTAL BEND AND RIO GRANDE PLAINS

CITY           SKY/WX    TMP DP  RH WIND       PRES   REMARKS
VICTORIA       CLEAR     61  57  87 SE5       29.71F
*BEEVILLE      CLEAR    N/A N/A N/A SE5       29.70F
ROCKPORT       MOCLDY    74  64  71 S10       29.69F
*PORT ARANSAS  CLOUDY    73  64  73 S17       29.70F
*PORT LAVACA   CLEAR     66  64  95 CALM      29.71F
*INGLESIDE     PTCLDY    74  66  75 S12       29.69F
CORPUS CHRISTI PTCLDY    69  64  84 S8        29.69F
CORPUS NAS     PTCLDY    74  67  78 S13       29.69
*ROBSTOWN      PTCLDY    68  63  86 SE7       29.69F
ALICE          CLEAR     63  60  90 SE6       29.68F
KINGSVILLE NAS PTCLDY    66  64  93 S7        29.68F
COTULLA        CLEAR     67  58  72 SE10      29.64F
*FAITH RANCH   CLEAR     70  59  68 SE12      29.63F
LAREDO         CLEAR     69  62  78 SE12      29.64F
$$

TXZ248>255-250900-
DEEP SOUTH TEXAS

CITY           SKY/WX    TMP DP  RH WIND       PRES   REMARKS
BROWNSVILLE    CLOUDY    76  68  76 S15       29.69F
PORT ISABEL    MOCLDY    75  68  78 S15G22    29.68F
*SOUTH PADRE   NOT AVBL
HARLINGEN      CLEAR     72  69  90 S14       29.66F
*HEBBRONVILLE  MOCLDY    65  62  89 S6        29.68F
MCALLEN        PTCLDY    73  68  84 SE13      29.67F
*WESLACO       CLEAR     71  67  87 S9        29.67F
FALFURRIAS     CLOUDY    69  63  80 SE6       29.68F
EDINBURG       PTCLDY    73  67  81 S8        29.67F
*ZAPATA        CLEAR     69  63  81 SE8       29.65F
$$

TXZ213>215-236>238-242>244-246-247-251-254-255-250900-
CMAN STATIONS

STATION/POSITION TIME  TEMP    WIND        PRES    WAVE
                       AIR SEA DIR/SP/G            HT/PER
                 (UTC) (F)     (DEG/KT/KT) (MB)    (FT/S)
SABINE PASS      0748   69 76  190/  9/ 15 1009.0
SEA RIM ST PARK  0800   70     200/ 15/ 19 1008.0
NORTH JETTY/GLS  0742      74  170/ 20/ 23 1006.8
EAGLE POINT      0748   71 73  200/ 15/ 17 1006.6
MORGANS POINT    0748   69 75  190/  7/ 10 1006.8
MISSION/ARANSAS  0700   74                 1007.0
PORT O`CONNOR    0748   72     170/ 17/ 19 1006.0
PORT ARANSAS     0800   74 76  160/ 20/ 21 1005.5
MALAQUITE BEACH  0748   74 77  160/ 19/ 22 1005.9
BAFFIN BAY       0748   74 73  140/ 16/ 19 1005.7
PORT ISABEL      0748   75 78  160/ 14/ 19 1005.3
$$

GMZ080-GMZ150>470-250900-
OFFSHORE BUOY REPORTS

STATION/POSITION TIME  TEMP    WIND        PRES    WAVE
                       AIR SEA DIR/SP/G            HT/PER
                 (UTC) (F)     (DEG/KT/KT) (MB)    (FT/S)
20 E GALVESTON   0650   71 75  200/ 17/ 21 1008.0    3/ 4
90 E PT ARANSAS  0650   73 75  170/ 16/ 19 1008.0    3/ 4
35 NE PT MANSFLD 0650   74     180/ 17/ 21 1005.8    4/ 5
200 E PT ISABEL  0750   74 79  170/ 14/ 17 1008.3    2/ 3
$$




USA.gov is the U.S. government's official web portal to all federal, state and local government web resources and services.